Snowfall_Accumulation
0.0 0.0 0.0 0.0 0.0 0.0 0.0 0.0 0.0 0.0 0.0 0.0 0.0 0.0 0.0 0.0 0.0 0.0 0.0 0.0 0.0 0.0
0.0 0.0 0.0 0.0 0.0 0.0 0.0 0.0 0.0 0.0 0.0 0.0 0.0 0.0 0.0 0.0 0.0 0.0 0.0 0.0 0.0 0.0
0.0 0.0 0.0 0.0 0.0 0.0 0.0 0.0 0.0 0.0 0.0 0.0 0.0 0.0 0.0 0.0 0.0 0.0 0.0 0.0 0.0 0.0
0.0 0.0 0.0 0.0 0.0 0.0 0.0 0.0 0.0 0.0 0.0 0.0 0.0 0.0 0.0 0.0 0.0 0.0 0.0 0.0 0.0 0.0
0.0 0.0 0.0 0.0 0.0 0.0 0.0 0.0 0.0 0.0 0.0 0.0 0.0 0.0 0.0 0.0 0.0 0.0 0.0 0.0 0.0 0.0
0.0 0.1 0.3 0.1 0.1 0.0 0.0 0.1 0.1 0.1 0.0 0.0 0.1 0.1 0.2 0.0 0.0 0.1 0.2 0.1 0.2 0.2
0.1 0.0 0.0 0.1 0.0 0.1 0.0 0.1 0.4 1.2 1.6 1.5 0.5 0.2 0.1 0.1 0.2 0.5 1.5 1.6 0.5 1.4
0.0 0.0 0.0 0.0 0.0 0.0 0.0 0.0 0.5 1.0 0.5 0.2 0.1 0.0 0.0 0.0 0.2 0.4 0.6 0.9 0.4 0.2
0.0 0.0 0.0 0.1 0.1 0.1 0.1 0.1 0.1 0.1 0.1 0.1 0.0 nan nan 0.0 0.0 0.0 0.0 0.0 0.0 0.0
0.1 0.2 0.2 0.3 0.4 0.5 0.4 0.2 0.3 0.2 0.1 0.1 0.0 nan nan nan 0.0 0.0 0.0 0.0 0.0 0.0
0.5 0.8 0.7 0.8 0.8 1.2 0.9 0.7 0.8 0.5 0.3 0.2 0.0 nan nan nan 0.0 0.0 0.0 0.0 0.0 0.0
0.6 0.8 0.8 1.1 1.0 0.8 1.1 1.3 1.0 0.6 0.4 0.3 0.3 nan nan 0.2 0.3 0.3 0.2 0.0 0.0 0.0
0.6 0.5 0.6 0.3 0.5 0.6 0.4 0.7 0.7 0.6 0.4 nan 0.4 nan nan nan 0.0 0.1 0.3 0.1 0.0 nan
0.8 0.5 0.3 0.2 0.3 0.3 0.5 0.4 1.0 0.9 1.2 0.7 0.3 0.2 nan nan 0.2 1.1 1.3 1.4 1.8 1.7
Water_Equivalent
0.00 0.00 0.00 0.00 0.00 0.00 0.00 0.00 0.00 0.00 0.00 0.00 0.00 0.00 0.00 0.00 0.00 0.00 0.00 0.00 0.00 0.00
0.00 0.00 0.00 0.00 0.00 0.00 0.00 0.00 0.00 0.00 0.00 0.00 0.00 0.00 0.00 0.00 0.00 0.00 0.00 0.00 0.00 0.00
0.00 0.00 0.00 0.00 0.00 0.00 0.00 0.00 0.00 0.00 0.00 0.00 0.00 0.00 0.00 0.00 0.00 0.00 0.00 0.00 0.00 0.00
0.00 0.00 0.00 0.00 0.00 0.00 0.00 0.00 0.00 0.00 0.00 0.00 0.00 0.00 0.00 0.00 0.00 0.00 0.00 0.00 0.00 0.00
0.00 0.00 0.00 0.00 0.00 0.00 0.00 0.00 0.00 0.00 0.00 0.00 0.00 0.00 0.00 0.00 0.01 0.01 0.00 0.01 0.00 0.00
0.01 0.04 0.12 0.04 0.03 0.01 0.02 0.02 0.03 0.03 0.01 0.02 0.04 0.03 0.06 0.01 0.01 0.02 0.06 0.04 0.06 0.06
0.03 0.00 0.00 0.05 0.00 0.02 0.00 0.02 0.16 0.48 0.63 0.61 0.22 0.10 0.05 0.04 0.07 0.13 0.48 0.50 0.14 0.40
0.00 0.00 0.00 0.00 0.00 0.01 0.02 0.01 0.20 0.38 0.20 0.09 0.05 0.02 0.00 0.00 0.07 0.12 0.18 0.31 0.12 0.05
0.00 0.00 0.01 0.02 0.03 0.02 0.03 0.03 0.02 0.04 0.02 0.03 0.00 nan nan 0.00 0.00 0.01 0.00 0.00 0.00 0.00
0.03 0.08 0.06 0.08 0.11 0.13 0.08 0.04 0.06 0.05 0.03 0.03 0.00 nan nan nan 0.00 0.00 0.00 0.00 0.00 0.00
0.12 0.20 0.20 0.19 0.17 0.25 0.19 0.16 0.16 0.12 0.06 0.04 0.01 nan nan nan 0.00 0.01 0.01 0.00 0.00 0.00
0.13 0.16 0.15 0.21 0.17 0.14 0.21 0.26 0.20 0.11 0.07 0.06 0.05 nan nan 0.05 0.06 0.05 0.04 0.00 0.00 0.00
0.14 0.10 0.10 0.06 0.09 0.10 0.07 0.12 0.14 0.10 0.07 nan 0.07 nan nan nan 0.01 0.02 0.09 0.01 0.00 nan
0.18 0.10 0.05 0.04 0.05 0.05 0.08 0.07 0.23 0.18 0.22 0.13 0.08 0.06 nan nan 0.05 0.30 0.34 0.33 0.41 0.42
SL_Ratio
nan nan nan nan nan nan nan nan nan nan nan nan nan nan nan nan nan nan nan nan nan nan
nan nan nan nan nan nan nan nan nan nan nan nan nan nan nan nan nan nan nan nan nan nan
nan nan nan nan nan nan nan nan nan nan nan nan nan nan nan nan nan nan nan nan nan nan
nan nan nan nan nan nan nan nan nan nan nan nan nan nan nan nan nan nan nan nan nan nan
4.0 2.2 nan nan nan nan nan nan nan nan nan nan nan nan 2.5 nan 2.5 3.5 nan 2.9 nan nan
2.5 2.5 2.5 2.5 2.5 2.5 2.5 2.7 2.5 2.5 3.0 2.9 2.9 3.0 2.8 3.1 3.7 3.5 3.4 3.4 3.5 3.7
2.5 nan 2.9 2.5 2.7 2.5 2.5 2.8 2.6 2.5 2.5 2.5 2.5 2.5 2.6 3.2 3.2 3.5 3.1 3.3 3.7 3.6
nan nan nan nan nan 2.9 2.6 2.4 2.5 2.5 2.7 2.6 2.6 2.4 3.1 2.0 3.2 3.2 3.1 2.9 3.1 3.2
nan 2.9 3.2 2.8 2.8 4.0 4.1 4.0 3.8 3.4 3.6 4.0 nan nan nan nan nan 3.5 nan 4.2 4.0 nan
2.8 2.8 3.2 3.6 3.7 4.0 4.6 4.5 4.5 4.5 4.3 4.6 3.6 nan nan nan 2.0 0.0 nan nan nan nan
3.7 3.8 3.8 4.1 4.6 4.7 4.6 4.6 4.8 4.6 4.9 4.8 5.3 nan nan nan 2.2 2.4 2.6 2.2 3.3 nan
4.6 4.9 5.1 5.2 5.4 5.5 5.3 5.2 5.1 5.0 5.4 5.4 5.3 nan nan 5.2 5.1 5.0 4.8 5.0 5.0 nan
4.4 5.3 5.4 5.6 5.6 5.6 5.7 5.6 4.9 5.8 5.8 nan 5.5 nan nan nan 5.2 6.3 3.7 5.7 5.4 nan
4.6 5.1 5.3 5.4 5.6 5.6 5.7 5.8 4.3 4.9 5.4 5.4 4.6 4.1 nan nan 3.4 3.6 4.0 4.1 4.3 4.0